Regional Weather Roundup
Issued by NWS

Home | Current Version | Previous Version | Graphics & Text | Print | Product List | Glossary On
Versions: 1 2 3 4 5 6 7 8 9 10 11 12 13 14 15 16 17 18 19 20 21 22 23 24 25 26 27 28 29 30 31 32 33 34 35 36 37 38 39 40 41 42 43 44 45 46 47 48 49 50
000
ASUS43 KMPX 270301
RWRMN
WEATHER ROUNDUP FOR MINNESOTA
NATIONAL WEATHER SERVICE TWIN CITIES/CHANHASSEN MN
900 PM CST MON JAN 26 2015


NOTE: "FAIR" INDICATES FEW OR NO CLOUDS BELOW 12,000 FEET WITH NO
SIGNIFICANT WEATHER AND/OR OBSTRUCTIONS TO VISIBILITY. N/A MEANS
CURRENT SKY AND/OR WEATHER CONDITIONS ARE NOT AVAILABLE.

MNZ060>063-068>070-270400-
   Twin Cities Metro

CITY           SKY/WX    TMP DP  RH WIND       PRES   REMARKS
TWIN CITIES    CLOUDY    38  29  70 NW9       29.91R
ST PAUL        CLOUDY    37  30  75 NW7       29.92R
CRYSTAL        CLOUDY    38  29  70 NW7       29.90R
BLAINE         CLOUDY    39  30  70 NW8       29.90R
LAKEVILLE      CLOUDY    36  30  80 NW9       29.91R
EDEN PRAIRIE   CLOUDY    37  30  75 NW6       29.91R
SOUTH ST PAUL  CLOUDY    39  30  69 NW5       29.91R
LAKE ELMO      CLOUDY    37  30  75 NW7       29.91R
$$
MNZ001>005-007-008-013>017-022>024-027-028-270400-
   Northwest Minnesota

CITY           SKY/WX    TMP DP  RH WIND       PRES   REMARKS
BEMIDJI        CLOUDY    28  25  86 NW6       29.95R WCI  22
HALLOCK        CLOUDY    27  25  93 N6        29.99S WCI  20
ROSEAU         CLOUDY    27  21  80 CALM      29.98R
WARROAD        CLOUDY    25  21  86 W3        29.98R
THIEF RVR FALL CLOUDY    28  25  86 NW6       29.99R WCI  22
CROOKSTON      CLOUDY    27  25  93 NE6       30.01R WCI  20
FOSSTON        CLOUDY    27  23  86 CALM      29.98R
DETROIT LAKES  CLOUDY    30  28  93 N7        29.97S WCI  23
MOORHEAD       MOCLDY    30  30 100 N5        30.01R WCI  25
PARK RAPIDS    CLOUDY    30  25  81 NW10      29.94R WCI  21
MAHNOMEN       CLOUDY    28  26  91 NW6       29.97S WCI  21
$$
MNZ006-009>011-018-025>026-270400-
   North Central Minnesota

CITY           SKY/WX    TMP DP  RH WIND       PRES   REMARKS
BAUDETTE       CLOUDY    25  21  85 NW9       29.95R WCI  15
FLAG ISLAND    CLOUDY    25  21  86 NW6       29.96R WCI  18
INTL FALLS     CLOUDY    26  21  81 NW7       29.94R WCI  18
WASKISH        CLOUDY    28  25  86 CALM      29.96R
BIG FORK       CLOUDY    28  21  74 NW6       29.94R WCI  22
LONGVILLE      CLOUDY    30  25  80 NW5       29.94R WCI  25
GRAND RAPIDS   CLOUDY    28  23  80 N8        29.91R WCI  20
CRANE LAKE     CLOUDY    25  21  86 CALM      29.96R
ORR            CLOUDY    25  21  86 CALM      29.91R
COOK           CLOUDY    25  21  86 CALM      29.93R
WALKER         CLOUDY    29  25  83 NW6       29.94R WCI  23
$$
MNZ012-019>021-037-270400-
   Northeast Minnesota

CITY           SKY/WX    TMP DP  RH WIND       PRES   REMARKS
DULUTH         CLOUDY    28  23  81 N13       29.89R WCI  17
ELY            CLOUDY    23  21  93 CALM      29.90R
HIBBING        CLOUDY    28  21  75 N13       29.92R WCI  17
EVELETH        CLOUDY    28  23  80 N6        29.92R WCI  22
DULUTH HARBOR  CLOUDY    32  27  80 N10       29.94R WCI  24
TWO HARBORS    CLOUDY    30  25  80 N5        29.89R WCI  25
SILVER BAY     CLOUDY    27  25  93 NW3       29.89R
GRAND MARAIS     N/A     25  20  81 N5        29.92R WCI  19
G MARAIS ARPRT CLOUDY    18  14  86 N6        29.86R WCI   9
$$
MNZ029>031-032-039>041-046>048-054>057-064-270400-
   West Central Minnesota

CITY           SKY/WX    TMP DP  RH WIND       PRES   REMARKS
FERGUS FALLS   CLOUDY    28  27  93 N7        30.01R WCI  21
WHEATON        PTCLDY    28  27  93 N7        30.02S WCI  21
MORRIS         MOCLDY    30  28  93 N13       29.97S WCI  20
ALEXANDRIA     CLOUDY    30  26  85 NW9       29.97R WCI  22
ELBOW LAKE     CLOUDY    28  27  95 NW7       29.98R WCI  21
WADENA         CLOUDY    28  27  93 NW7       29.95R WCI  21
GLENWOOD       CLOUDY    30  28  93 N10       29.97R WCI  21
APPLETON       CLEAR     32  30  93 N7        29.99S WCI  26
BENSON         CLEAR     30  28  93 N8        29.98S WCI  23
ORTONVILLE     CLEAR     32  28  86 N6        29.99R WCI  26
MADISON        CLEAR     36  34  93 N8        29.99R
WILLMAR        CLOUDY    34  28  80 NW14      29.99R WCI  24
$$
MNZ033>034-036-042>043-049>051-058-059-270400-
   Central Minnesota

CITY           SKY/WX    TMP DP  RH WIND       PRES   REMARKS
ST CLOUD       CLOUDY    34  29  82 NW9       29.93R WCI  27
SAUK CENTRE    CLOUDY    32  28  86 NW10      29.96R WCI  23
PAYNESVILLE    CLOUDY    30  28  90 W8        29.97R WCI  23
AITKIN         CLOUDY    34  27  75 N7        29.91R WCI  28
PINE RIVER     CLOUDY    30  27  86 N12       29.97R WCI  21
BRAINERD       CLOUDY    32  26  78 N12       29.94R WCI  23
STAPLES        CLOUDY    30  27  86 N6        29.95R WCI  24
LONG PRAIRIE   CLOUDY    32  28  86 NW10      29.96R WCI  24
LITTLE FALLS   CLOUDY    34  27  75 NW7       29.94R WCI  28
LITCHFIELD     MOCLDY    36  30  80 NW10      29.95R
BUFFALO        CLOUDY    36  29  78 W6        29.94R
MAPLE LAKE     CLOUDY    36  31  83 NW6       29.93R
$$
MNZ037-044-045-052-053-270400-
   East Central Minnesota

CITY           SKY/WX    TMP DP  RH WIND       PRES   REMARKS
PRINCETON      CLOUDY    37  30  75 N9        29.92R
MORA           CLOUDY    34  28  80 N5        29.92R WCI  30
CAMBRIDGE      CLOUDY    37  28  70 N7        29.90R
RUSH CITY      CLOUDY    35  29  78 NW5       29.91R WCI  31
MOOSE LAKE     CLOUDY    32  27  80 N8        29.89S WCI  25
HINCKLEY       CLOUDY    34  30  86 N9        29.91R WCI  26
CLOQUET        CLOUDY    30  25  80 NW14      29.90R WCI  20
MCGREGOR       CLOUDY    32  28  86 N6        29.92R WCI  26
$$
MNZ071>073-080-081-089-090-097-098-270400-
   Southwest Minnesota

CITY           SKY/WX    TMP DP  RH WIND       PRES   REMARKS
MONTEVIDEO     CLEAR     34  30  86 N8        29.99R WCI  27
GRANITE FALLS  CLEAR     34  31  90 NW9       30.00R WCI  26
CANBY          CLEAR     34  32  92 NW6       30.00R WCI  29
MARSHALL       FAIR      34  28  80 NW10      30.00R WCI  26
REDWOOD FALLS  CLEAR     35  31  85 N12G21    29.97R WCI  27
OLIVIA         PTCLDY    32  30  93 NW13      29.97R WCI  22
PIPESTONE      CLEAR     36  32  87 N7        29.97R
WINDOM         CLEAR     34  34 100 NW7       29.96R WCI  28
WORTHINGTON    CLEAR     34  28  80 NW10      29.97S WCI  26
JACKSON        CLEAR     34  32  93 W8        29.96R WCI  27
TRACY          CLEAR     36  33  89 NW10      29.97R
SLAYTON        CLEAR     33  32  93 CALM      29.98R
$$
MNZ065>067-074>077-082>085-091>093-270400-
   South Central Minnesota

CITY           SKY/WX    TMP DP  RH WIND       PRES   REMARKS
MANKATO        CLOUDY    36  28  75 NW13      29.94R
NEW ULM        CLOUDY    36  30  80 NW10      29.95R
ST JAMES       CLEAR     36  32  87 NW9       29.97R
FAIRMONT       CLOUDY    37  30  75 NW12      29.95R
GLENCOE        CLOUDY    36  32  87 NW8       29.93R
FARIBAULT      CLOUDY    36  30  80 NW10      29.92R
OWATONNA       CLOUDY    36  30  80 NW12      29.91R
WASECA         CLOUDY    36  32  87 NW7       29.93R
ALBERT LEA     CLOUDY    37  34  87 NW8       29.91R
$$
MNZ078>079-086>088-094>096-270400-
   Southeast Minnesota

CITY           SKY/WX    TMP DP  RH WIND       PRES   REMARKS
ROCHESTER      CLOUDY    35  31  85 NW16      29.88R WCI  25
RED WING       CLOUDY    39  28  65 N7        29.89R
STANTON        CLOUDY    37  31  79 NW7       29.90R
DODGE CENTER   CLOUDY    36  32  87 NW13      29.89R
WINONA         CLOUDY    30  28  93 CALM      29.89R
AUSTIN         CLOUDY    36  30  80 NW12      29.90R
PRESTON        CLOUDY    35  32  88 NW12      29.87R WCI  27
$$
ABBREVIATIONS USED IN REMARKS
   TC - TEMPERATURES IN CELSIUS
  WCI - WIND CHILL INDEX
   HX - HEAT INDEX
  VSB - VISIBILITY
$$



USA.gov is the U.S. government's official web portal to all federal, state and local government web resources and services.